Coatesville, PA

12:22 AM EST on December 15, 2017 (GMT -0500)
Chester County Carlson

Weather History for KMQS - October, 2011

Change the Weather History Date:

Monday, October 3, 2011

  Actual Average (KILG) Record (KILG)
Temperature  
Mean Temperature 48 °F -  
Max Temperature 53 °F 70 °F 88 °F (1919)
Min Temperature 44 °F 50 °F 32 °F (1974)
Degree Days  
Heating Degree Days 16    
Moisture  
Dew Point 45 °F    
Average Humidity 88    
Maximum Humidity 100    
Minimum Humidity 71    
Precipitation  
Precipitation 0.00 in - - ()
Sea Level Pressure  
Sea Level Pressure 30.01 in    
Wind  
Wind Speed 1 mph (SW)    
Max Wind Speed 7 mph    
Max Gust Speed -    
Visibility 8 miles    
Events Rain    
Averages and records for this station are not official NWS values.
T = Trace of Precipitation, MM = Missing Value Source: NWS Daily Summary

Daily Weather History Graph

Daily Weather History Graph

Search for Another Location

Airport or City:

Trip Planner

Search our weather history database for the weather conditions in past years. The results will help you decide how hot, cold, wet, or windy it might be!

Date:

Astronomy

Oct. 03, 2011 Rise Set
Actual Time 7:01 AM EDT 6:43 PM EDT
Civil Twilight 6:34 AM EDT 7:10 PM EDT
Nautical Twilight 6:03 AM EDT 7:41 PM EDT
Astronomical Twilight 5:31 AM EDT 8:12 PM EDT
Moon 1:57 PM EDT (10/3) 11:43 PM EDT (10/3)
Length of Visible Light 12h 35m
Length of Day
11h 41m
Waxing Crescent, 45% of the Moon is Illuminated
Oct 3
Waxing Crescent
Oct 3
First Quarter
Oct 11
Full
Oct 19
Last Quarter
Oct 26
New

Hourly Weather History & Observations

Time (EDT) Temp. Windchill Dew Point Humidity Pressure Visibility Wind Dir Wind Speed Gust Speed Precip Events Conditions
12:15 AM 46.4 °F - 44.6 °F 93% 29.93 in 6.0 mi Calm Calm - N/A   Overcast
12:35 AM 46.4 °F - 46.4 °F 100% 29.93 in 5.0 mi Calm Calm - N/A   Overcast
1:15 AM 46.4 °F - 46.4 °F 100% 29.93 in 4.0 mi Calm Calm - N/A   Overcast
1:35 AM 46.4 °F - 46.4 °F 100% 29.93 in 2.0 mi Calm Calm - N/A   Overcast
1:55 AM 46.4 °F - 44.6 °F 93% 29.93 in 2.5 mi Calm Calm - N/A   Overcast
2:15 AM 46.4 °F - 46.4 °F 100% 29.93 in 1.2 mi Calm Calm - N/A Rain Light Rain
2:35 AM 46.4 °F - 46.4 °F 100% 29.93 in 3.0 mi Calm Calm - N/A   Overcast
3:35 AM 46.4 °F - 46.4 °F 100% 29.93 in 5.0 mi Calm Calm - N/A   Overcast
4:15 AM 46.4 °F - 46.4 °F 100% 29.95 in 4.0 mi Calm Calm - N/A   Overcast
4:35 AM 46.4 °F - 46.4 °F 100% 29.95 in 5.0 mi Calm Calm - N/A   Overcast
4:55 AM 46.4 °F 45.2 °F 44.6 °F 93% 29.95 in 5.0 mi SSW 3.5 mph - N/A   Overcast
5:15 AM 44.6 °F - 44.6 °F 100% 29.96 in 7.0 mi Calm Calm - N/A   Overcast
5:35 AM 44.6 °F 43.1 °F 44.6 °F 100% 29.97 in 5.0 mi SW 3.5 mph - N/A   Overcast
5:55 AM 44.6 °F - 44.6 °F 100% 29.97 in 7.0 mi Calm Calm - N/A   Mostly Cloudy
6:15 AM 44.6 °F - 44.6 °F 100% 29.98 in 8.0 mi Calm Calm - N/A   Overcast
6:35 AM 44.6 °F - 44.6 °F 100% 29.99 in 9.0 mi Calm Calm - N/A   Overcast
6:55 AM 44.6 °F - 44.6 °F 100% 30.00 in 9.0 mi Calm Calm - N/A   Overcast
7:15 AM 44.6 °F - 44.6 °F 100% 30.00 in 10.0 mi Calm Calm - N/A   Overcast
7:35 AM 44.6 °F - 44.6 °F 100% 30.00 in 7.0 mi Calm Calm - N/A   Scattered Clouds
7:55 AM 44.6 °F - 44.6 °F 100% 30.01 in 1.8 mi Calm Calm - N/A   Mostly Cloudy
8:15 AM 46.4 °F - 44.6 °F 93% 30.01 in 4.0 mi Calm Calm - N/A   Mostly Cloudy
8:35 AM 46.4 °F - 44.6 °F 93% 30.02 in 10.0 mi Calm Calm - N/A   Mostly Cloudy
8:55 AM 46.4 °F - 44.6 °F 93% 30.02 in 10.0 mi Calm Calm - N/A   Mostly Cloudy
9:15 AM 46.4 °F - 42.8 °F 87% 30.03 in 10.0 mi Calm Calm - N/A   Mostly Cloudy
9:35 AM 46.4 °F 45.2 °F 44.6 °F 93% 30.04 in 10.0 mi SSE 3.5 mph - N/A   Overcast
9:55 AM 48.2 °F - 42.8 °F 82% 30.04 in 10.0 mi Calm Calm - N/A   Scattered Clouds
10:15 AM 48.2 °F - 42.8 °F 82% 30.04 in 10.0 mi SSE 3.5 mph - N/A   Clear
10:35 AM 48.2 °F - 42.8 °F 82% 30.04 in 10.0 mi Calm Calm - N/A   Mostly Cloudy
10:55 AM 48.2 °F - 42.8 °F 82% 30.05 in 10.0 mi Calm Calm - N/A   Mostly Cloudy
11:15 AM 50.0 °F - 44.6 °F 82% 30.05 in 10.0 mi ESE 3.5 mph - N/A   Scattered Clouds
11:35 AM 50.0 °F - 44.6 °F 82% 30.05 in 10.0 mi Calm Calm - N/A   Mostly Cloudy
11:55 AM 50.0 °F - 44.6 °F 82% 30.05 in 10.0 mi South 3.5 mph - N/A   Overcast
12:15 PM 51.8 °F - 44.6 °F 76% 30.05 in 10.0 mi South 3.5 mph - N/A   Mostly Cloudy
12:35 PM 51.8 °F - 44.6 °F 76% 30.05 in 10.0 mi West 3.5 mph - N/A   Scattered Clouds
12:55 PM 51.8 °F - 42.8 °F 71% 30.05 in 10.0 mi Calm Calm - N/A   Mostly Cloudy
1:15 PM 51.8 °F - 42.8 °F 71% 30.05 in 10.0 mi SW 3.5 mph - N/A   Mostly Cloudy
1:35 PM 53.6 °F - 44.6 °F 72% 30.04 in 10.0 mi Calm Calm - N/A   Scattered Clouds
2:15 PM 51.8 °F - 42.8 °F 71% 30.04 in 10.0 mi SW 3.5 mph - N/A   Mostly Cloudy
2:35 PM 51.8 °F - 44.6 °F 76% 30.04 in 10.0 mi Calm Calm - N/A   Overcast
2:55 PM 51.8 °F - 44.6 °F 76% 30.04 in 10.0 mi SSE 3.5 mph - N/A   Overcast
3:35 PM 51.8 °F - 44.6 °F 76% 30.04 in 10.0 mi Calm Calm - N/A   Mostly Cloudy
3:55 PM 51.8 °F - 44.6 °F 76% 30.04 in 10.0 mi Calm Calm - N/A   Mostly Cloudy
4:15 PM 51.8 °F - 44.6 °F 76% 30.05 in 10.0 mi Calm Calm - N/A   Overcast
4:35 PM 51.8 °F - 42.8 °F 71% 30.05 in 10.0 mi Calm Calm - N/A   Mostly Cloudy
4:55 PM 51.8 °F - 44.6 °F 76% 30.05 in 10.0 mi WNW 4.6 mph - N/A   Overcast
5:15 PM 51.8 °F - 44.6 °F 76% 30.05 in 10.0 mi NW 6.9 mph - N/A   Mostly Cloudy
5:55 PM 50.0 °F - 44.6 °F 82% 30.05 in 10.0 mi WNW 5.8 mph - N/A   Overcast
6:15 PM 50.0 °F - 44.6 °F 82% 30.06 in 10.0 mi WNW 5.8 mph - N/A   Overcast
6:35 PM 50.0 °F - 44.6 °F 82% 30.06 in 10.0 mi WNW 5.8 mph - N/A   Mostly Cloudy
6:55 PM 48.2 °F - 44.6 °F 87% 30.06 in 10.0 mi WNW 4.6 mph - N/A   Scattered Clouds
7:15 PM 48.2 °F - 44.6 °F 87% 30.07 in 10.0 mi West 3.5 mph - N/A   Mostly Cloudy
7:35 PM 48.2 °F - 44.6 °F 87% 30.08 in 10.0 mi Calm Calm - N/A   Overcast
7:55 PM 48.2 °F - 44.6 °F 87% 30.08 in 10.0 mi WNW 4.6 mph - N/A   Overcast
8:15 PM 48.2 °F - 46.4 °F 93% 30.08 in 10.0 mi NW 5.8 mph - N/A   Overcast
8:35 PM 48.2 °F - 46.4 °F 93% 30.08 in 10.0 mi NW 5.8 mph - N/A   Overcast
8:55 PM 48.2 °F - 46.4 °F 93% 30.09 in 10.0 mi NW 5.8 mph - N/A   Overcast
9:15 PM 48.2 °F - 46.4 °F 93% 30.09 in 10.0 mi NW 5.8 mph - N/A   Overcast
9:35 PM 48.2 °F - 46.4 °F 93% 30.09 in 10.0 mi NW 5.8 mph - N/A   Overcast
9:55 PM 48.2 °F - 46.4 °F 93% 30.10 in 10.0 mi NW 5.8 mph - N/A   Mostly Cloudy
10:15 PM 48.2 °F - 46.4 °F 93% 30.09 in 10.0 mi NW 5.8 mph - N/A   Scattered Clouds
10:35 PM 48.2 °F - 46.4 °F 93% 30.09 in 10.0 mi WNW 4.6 mph - N/A   Scattered Clouds
10:55 PM 46.4 °F 43.5 °F 46.4 °F 100% 30.09 in 8.0 mi WNW 5.8 mph - N/A   Partly Cloudy
11:15 PM 46.4 °F 43.5 °F 44.6 °F 93% 30.10 in 7.0 mi WNW 5.8 mph - N/A   Partly Cloudy
11:35 PM 46.4 °F 43.5 °F 46.4 °F 100% 30.09 in 5.0 mi WNW 5.8 mph - N/A   Scattered Clouds
11:55 PM 46.4 °F 44.3 °F 46.4 °F 100% 30.09 in 5.0 mi WNW 4.6 mph - N/A   Scattered Clouds